Total_Precipitation_Accumulation
1.24 1.56 2.02 2.37 2.84 3.36 3.59 3.70 3.76 4.02 4.38 4.38 4.19 3.98 3.71 3.43 3.17 3.06 3.02 2.82 2.66 2.52 2.44 2.32 2.31 2.22 2.09 2.00 1.96 1.95 1.94 1.83 1.80 1.87 1.74 1.49 1.35 1.27 1.10 0.97 0.87 0.84 0.87
1.19 1.50 1.84 2.22 2.49 3.11 3.51 3.60 3.81 4.07 4.34 4.27 4.16 4.07 4.04 3.86 3.57 3.40 3.14 2.97 2.81 2.62 2.53 2.43 2.31 2.27 2.20 2.10 2.04 2.03 2.15 2.21 2.19 2.17 2.15 2.01 1.80 1.46 1.22 1.13 1.01 0.94 0.99
1.15 1.40 1.65 1.98 2.18 2.57 3.08 3.33 3.49 3.86 4.13 4.33 4.67 4.69 4.53 4.23 3.77 3.47 3.29 3.10 3.07 2.91 2.68 2.61 2.50 2.34 2.25 2.18 2.08 1.95 1.93 2.10 2.27 2.29 2.40 2.23 1.91 1.60 1.40 1.22 1.12 1.05 1.02
1.12 1.35 1.54 1.68 1.91 2.18 2.63 3.07 3.36 3.64 3.87 4.04 4.30 4.45 4.28 3.90 3.52 3.29 3.31 3.35 3.29 3.27 3.11 2.89 2.72 2.59 2.42 2.25 2.21 2.19 2.06 2.04 2.15 2.21 2.16 2.05 1.80 1.73 1.64 1.40 1.25 1.17 1.12
1.29 1.39 1.46 1.49 1.67 1.93 2.39 2.81 3.12 3.46 3.65 3.80 3.92 4.12 4.18 4.02 3.84 3.60 3.51 3.53 3.45 3.34 3.23 3.13 2.96 2.77 2.66 2.51 2.40 2.32 2.31 2.25 2.20 2.18 2.10 2.07 1.85 1.63 1.62 1.50 1.33 1.31 1.23
1.49 1.47 1.48 1.47 1.57 1.78 2.06 2.48 2.85 3.25 3.54 3.69 3.89 3.96 3.89 3.92 3.89 3.60 3.55 3.55 3.63 3.54 3.30 3.13 3.06 2.93 2.84 2.74 2.64 2.56 2.50 2.42 2.30 2.25 2.20 2.19 2.15 1.89 1.75 1.60 1.38 1.37 1.29
1.39 1.42 1.46 1.47 1.54 1.70 1.87 2.14 2.39 2.78 3.22 3.45 3.64 3.78 3.82 3.72 3.75 3.64 3.50 3.46 3.39 3.37 3.36 3.18 3.08 3.02 2.85 2.77 2.74 2.67 2.54 2.52 2.43 2.35 2.30 2.24 2.11 2.01 2.01 1.98 1.78 1.62 1.41
1.35 1.40 1.45 1.56 1.64 1.67 1.77 1.96 2.10 2.32 2.76 3.12 3.25 3.37 3.57 3.60 3.45 3.45 3.36 3.31 3.19 3.09 3.16 3.19 3.05 2.98 2.89 2.73 2.64 2.62 2.51 2.45 2.44 2.34 2.28 2.26 2.18 2.13 2.18 2.22 2.26 2.17 1.84
1.30 1.39 1.45 1.60 1.70 1.69 1.70 1.83 1.96 2.02 2.29 2.73 2.99 3.11 3.21 3.21 3.04 2.96 2.96 2.99 3.03 3.01 3.01 3.05 2.97 2.89 2.81 2.69 2.58 2.49 2.40 2.34 2.31 2.25 2.20 2.16 2.10 2.13 2.14 2.19 2.32 2.54 2.40
1.30 1.43 1.50 1.53 1.63 1.68 1.73 1.80 1.81 1.87 1.98 2.21 2.54 2.85 3.01 2.96 2.93 2.85 2.68 2.60 2.59 2.64 2.75 2.85 2.83 2.80 2.74 2.65 2.50 2.36 2.30 2.28 2.17 2.13 2.13 2.05 1.96 2.03 2.15 2.22 2.23 2.34 2.45
1.38 1.52 1.58 1.60 1.61 1.63 1.73 1.80 1.73 1.71 1.77 1.91 2.07 2.30 2.66 2.76 2.79 2.78 2.58 2.45 2.34 2.30 2.36 2.38 2.44 2.49 2.52 2.51 2.42 2.25 2.17 2.18 2.09 2.04 2.06 2.01 1.92 1.94 1.98 2.08 2.12 2.14 2.21
1.26 1.41 1.50 1.54 1.61 1.66 1.75 1.84 1.81 1.74 1.68 1.72 1.79 1.91 2.18 2.43 2.55 2.68 2.57 2.42 2.35 2.24 2.20 2.18 2.19 2.20 2.17 2.21 2.20 2.07 1.98 1.97 1.92 1.87 1.91 1.91 1.87 1.89 1.86 1.89 1.91 1.88 1.85
1.12 1.19 1.27 1.41 1.55 1.66 1.72 1.82 1.84 1.76 1.65 1.59 1.59 1.72 1.87 2.06 2.19 2.27 2.38 2.32 2.32 2.24 2.16 2.10 2.08 2.06 2.04 2.04 2.01 1.99 1.88 1.83 1.76 1.71 1.72 1.74 1.80 1.78 1.70 1.67 1.67 1.65 1.67
1.03 1.05 1.13 1.24 1.36 1.52 1.63 1.68 1.74 1.74 1.67 1.55 1.46 1.53 1.63 1.79 1.92 1.94 2.08 2.13 2.16 2.21 2.10 1.98 1.93 1.90 1.93 1.99 2.00 2.03 1.98 1.85 1.77 1.71 1.67 1.61 1.62 1.58 1.54 1.56 1.59 1.67 1.80
1.00 1.05 1.08 1.11 1.19 1.30 1.38 1.46 1.53 1.55 1.57 1.53 1.44 1.43 1.43 1.53 1.64 1.67 1.77 1.88 1.94 2.08 2.09 2.00 1.94 1.89 1.88 1.94 2.00 2.04 2.02 1.93 1.85 1.74 1.64 1.56 1.58 1.57 1.54 1.59 1.63 1.74 1.94
0.97 1.02 1.04 1.02 1.02 1.10 1.19 1.24 1.34 1.41 1.46 1.44 1.44 1.40 1.37 1.40 1.49 1.51 1.55 1.63 1.75 1.88 1.99 2.03 2.00 1.96 1.93 2.15 2.16 2.07 2.03 2.00 1.92 1.81 1.66 1.57 1.59 1.55 1.59 1.64 1.73 1.91 2.12
0.88 0.90 0.93 0.98 1.01 1.04 1.06 1.12 1.20 1.25 1.32 1.34 1.35 1.40 1.44 1.43 1.46 1.47 1.48 1.55 1.66 1.78 1.90 1.97 2.02 2.04 2.09 2.19 2.04 2.08 1.97 1.93 1.88 1.79 1.71 1.61 1.51 1.52 1.38 1.51 1.66 1.74 1.88
0.84 0.89 0.89 0.90 0.92 0.95 0.97 0.98 1.02 1.10 1.18 1.23 1.27 1.30 1.38 1.42 1.41 1.44 1.46 1.52 1.59 1.70 1.81 1.89 1.88 1.88 1.97 2.06 1.93 1.92 1.84 1.86 1.83 1.73 1.66 1.64 1.59 1.55 1.58 1.64 1.72 1.55 1.44
0.83 0.90 0.92 0.92 0.88 0.86 0.90 0.93 0.95 0.99 1.06 1.17 1.28 1.32 1.37 1.41 1.43 1.49 1.50 1.51 1.59 1.67 1.67 1.71 1.74 1.73 1.80 1.88 1.81 1.79 1.68 1.74 1.69 1.61 1.56 1.55 1.50 1.72 1.91 1.92 1.92 1.67 1.41
0.73 0.81 0.83 0.84 0.85 0.89 0.92 0.96 1.01 1.02 1.11 1.22 1.32 1.34 1.38 1.47 1.50 1.49 1.51 1.50 1.55 1.64 1.60 1.56 1.55 1.55 1.58 1.70 1.66 1.65 1.58 1.62 1.57 1.54 1.52 1.63 1.59 1.77 1.91 1.83 1.92 1.84 1.53
0.72 0.73 0.74 0.81 0.95 1.02 1.02 1.05 1.07 1.15 1.23 1.26 1.31 1.34 1.32 1.39 1.44 1.41 1.41 1.46 1.49 1.50 1.45 1.40 1.38 1.37 1.45 1.55 1.51 1.53 1.51 1.55 1.54 1.49 1.44 1.41 1.66 1.79 1.85 1.75 1.61 1.72 1.76
0.71 0.69 0.71 0.76 0.83 0.96 1.06 1.11 1.16 1.18 1.16 1.17 1.24 1.35 1.34 1.33 1.35 1.37 1.37 1.41 1.41 1.38 1.33 1.27 1.26 1.23 1.29 1.41 1.44 1.49 1.54 1.63 1.54 1.40 1.28 1.34 1.60 1.63 1.68 1.64 1.70 1.89 1.88
0.69 0.68 0.70 0.70 0.69 0.76 0.91 1.09 1.19 1.21 1.21 1.19 1.23 1.30 1.32 1.33 1.37 1.36 1.37 1.37 1.34 1.30 1.24 1.18 1.16 1.14 1.15 1.26 1.41 1.46 1.55 1.61 1.52 1.40 1.45 1.48 1.53 1.50 1.52 1.68 1.84 1.80 1.66
0.63 0.66 0.65 0.63 0.65 0.69 0.76 0.89 1.00 1.10 1.18 1.22 1.22 1.24 1.29 1.32 1.32 1.31 1.34 1.36 1.39 1.36 1.27 1.22 1.18 1.12 1.08 1.13 1.22 1.33 1.41 1.45 1.47 1.48 1.49 1.45 1.44 1.46 1.54 1.68 1.71 1.65 1.70
0.63 0.66 0.66 0.63 0.64 0.64 0.68 0.72 0.80 0.90 0.99 1.06 1.12 1.13 1.18 1.25 1.28 1.28 1.34 1.40 1.44 1.52 1.56 1.47 1.37 1.33 1.28 1.27 1.42 1.48 1.46 1.46 1.49 1.52 1.46 1.41 1.42 1.46 1.45 1.50 1.55 1.63 1.79
0.62 0.62 0.60 0.59 0.61 0.62 0.66 0.68 0.72 0.81 0.87 0.93 0.97 1.02 1.07 1.12 1.15 1.17 1.22 1.33 1.37 1.43 1.46 1.49 1.49 1.43 1.44 1.44 1.44 1.46 1.53 1.61 1.65 1.64 1.58 1.48 1.42 1.44 1.43 1.47 1.52 1.57 1.72